Weather History for KCSG - October, 2013

Change the Weather History Date:

Tuesday, October 8, 2013

  Actual Average Record
Temperature  
Mean Temperature 71 °F 69 °F  
Max Temperature 80 °F 80 °F 91 °F (1990)
Min Temperature 61 °F 58 °F 40 °F (1991)
Degree Days  
Heating Degree Days 0 1  
Month to date heating degree days 0 8  
Since 1 July heating degree days 0 11  
Cooling Degree Days 6 5  
Month to date cooling degree days 78 48  
Year to date cooling degree days 2257 2270  
Growing Degree Days 20 (Base 50)    
Moisture  
Dew Point 56 °F    
Average Humidity 66    
Maximum Humidity 78    
Minimum Humidity 54    
Precipitation  
Precipitation 0.00 in 0.08 in 2.75 in (2008)
Month to date precipitation 0.35 0.71  
Year to date precipitation 51.89 36.51  
Sea Level Pressure  
Sea Level Pressure 30.00 in    
Wind  
Wind Speed 9 mph (ENE)    
Max Wind Speed 18 mph    
Max Gust Speed 23 mph    
Visibility 10 miles    
Events      
T = Trace of Precipitation, MM = Missing Value Source: NWS Daily Summary

Daily Weather History Graph

Daily Weather History Graph

Search for Another Location

Airport or City:

Trip Planner

Search our weather history database for the weather conditions in past years. The results will help you decide how hot, cold, wet, or windy it might be!

Date:

Astronomy

Oct. 08, 2013 Rise Set
Actual Time 7:38 AM EDT 7:15 PM EDT
Civil Twilight 7:14 AM EDT 7:39 PM EDT
Nautical Twilight 6:45 AM EDT 8:08 PM EDT
Astronomical Twilight 6:17 AM EDT 8:36 PM EDT
Moon 11:19 AM EDT (10/8) 10:03 PM EDT (10/8)
Length of Visible Light 12h 25m
Length of Day
11h 36m
Waxing Crescent, 16% of the Moon is Illuminated
Oct 8
Waxing Crescent
Oct 11
First Quarter
Oct 18
Full
Oct 26
Last Quarter
Nov 3
New

Hourly Weather History & Observations

Time (EDT) Temp. Dew Point Humidity Pressure Visibility Wind Dir Wind Speed Gust Speed Precip Events Conditions
12:51 AM 64.0 °F 48.9 °F 58% 29.93 in 10.0 mi North 8.1 mph - N/A   Clear
1:51 AM 62.1 °F 48.9 °F 62% 29.94 in 10.0 mi Variable 3.5 mph - N/A   Clear
2:51 AM 62.1 °F 50.0 °F 65% 29.93 in 10.0 mi NNE 4.6 mph - N/A   Scattered Clouds
3:51 AM 61.0 °F 50.0 °F 67% 29.92 in 10.0 mi NNE 4.6 mph - N/A   Mostly Cloudy
4:51 AM 61.0 °F 51.1 °F 70% 29.92 in 10.0 mi North 5.8 mph - N/A   Overcast
5:51 AM 61.0 °F 52.0 °F 72% 29.94 in 10.0 mi North 3.5 mph - N/A   Overcast
6:51 AM 63.0 °F 55.0 °F 75% 29.94 in 10.0 mi Calm Calm - N/A   Overcast
7:09 AM 62.6 °F 55.4 °F 77% 29.96 in 10.0 mi North 3.5 mph - N/A   Overcast
7:51 AM 64.9 °F 55.9 °F 73% 29.97 in 10.0 mi ENE 5.8 mph - N/A   Overcast
8:51 AM 66.0 °F 54.0 °F 65% 29.99 in 10.0 mi ENE 8.1 mph - N/A   Mostly Cloudy
9:51 AM 68.0 °F 54.0 °F 61% 30.01 in 10.0 mi East 11.5 mph - N/A   Overcast
10:51 AM 69.1 °F 55.0 °F 61% 30.01 in 10.0 mi East 15.0 mph 19.6 mph N/A   Overcast
11:51 AM 72.0 °F 57.0 °F 59% 30.01 in 10.0 mi East 11.5 mph - N/A   Mostly Cloudy
12:51 PM 75.9 °F 60.1 °F 58% 30.01 in 10.0 mi ESE 11.5 mph - N/A   Partly Cloudy
1:51 PM 79.0 °F 61.0 °F 54% 30.00 in 10.0 mi ESE 10.4 mph - N/A   Partly Cloudy
2:51 PM 79.0 °F 60.1 °F 52% 29.98 in 10.0 mi ENE 10.4 mph - N/A   Scattered Clouds
3:51 PM 79.0 °F 61.0 °F 54% 29.99 in 10.0 mi ENE 9.2 mph 19.6 mph N/A   Mostly Cloudy
4:51 PM 75.9 °F 60.1 °F 58% 30.00 in 10.0 mi ENE 10.4 mph - N/A   Mostly Cloudy
5:07 PM 75.2 °F 59.0 °F 57% 30.02 in 10.0 mi ENE 11.5 mph - N/A   Mostly Cloudy
5:37 PM 75.2 °F 60.8 °F 61% 30.02 in 10.0 mi East 10.4 mph - N/A   Mostly Cloudy
5:51 PM 75.0 °F 60.1 °F 60% 30.02 in 10.0 mi East 11.5 mph - N/A   Mostly Cloudy
6:51 PM 73.0 °F 59.0 °F 61% 30.04 in 10.0 mi East 10.4 mph - N/A   Overcast
7:42 PM 69.8 °F 57.2 °F 64% 30.06 in 10.0 mi ENE 8.1 mph - N/A   Scattered Clouds
7:51 PM 69.1 °F 57.9 °F 68% 30.06 in 10.0 mi ENE 8.1 mph - N/A   Partly Cloudy
8:51 PM 68.0 °F 57.0 °F 68% 30.07 in 10.0 mi ENE 11.5 mph - N/A   Mostly Cloudy
9:51 PM 66.9 °F 57.0 °F 70% 30.08 in 10.0 mi East 9.2 mph - N/A   Overcast
10:51 PM 66.0 °F 55.9 °F 70% 30.09 in 10.0 mi East 8.1 mph - N/A   Overcast
11:43 PM 66.2 °F 55.4 °F 68% 30.10 in 10.0 mi East 10.4 mph - N/A   Overcast
11:51 PM 64.9 °F 55.9 °F 73% 30.09 in 10.0 mi East 12.7 mph - N/A   Overcast